Location: Poughquag
(41.6090°N, 73.6820°W)
Time: 08:58:44
(UTC-04:00)

NOAA 19 - Visible Passes

Search period start: 24 July 2024 00:00
Search period end: 03 August 2024 00:00
Orbit: 839 x 859 km, 99.0° (Epoch: 24 July)

Date Brightness Start Highest point End Pass type
(mag) Time Alt. Az. Time Alt. Az. Time Alt. Az.
24 Jul 5.6 21:07:39 10° SE 21:13:00 51° ENE 21:18:20 10° N visible
24 Jul 7.2 22:49:40 10° SW 22:53:52 22° W 22:58:05 10° NW visible
25 Jul 5.9 20:55:35 10° SE 21:00:42 40° ENE 21:05:50 10° N visible
25 Jul 6.8 22:36:49 10° SSW 22:41:24 28° W 22:46:07 10° NW visible
26 Jul 6.2 20:43:38 10° SE 20:48:27 32° ENE 20:53:17 10° N visible
26 Jul 6.5 22:24:22 12° SSW 22:28:58 36° W 22:34:02 10° NNW visible
27 Jul 6.1 22:11:55 13° S 22:16:33 46° W 22:21:52 10° NNW visible
28 Jul 5.7 21:59:28 14° S 22:04:09 59° WSW 22:09:38 10° NNW visible
29 Jul 5.3 21:47:01 14° S 21:51:47 76° WSW 21:57:19 10° NNW visible
30 Jul 5.2 21:34:34 14° SSE 21:39:26 85° ENE 21:44:59 10° NNW visible
30 Jul 7.7 23:18:27 10° WSW 23:20:42 12° W 23:22:57 10° WNW visible
31 Jul 5.3 21:22:08 13° SSE 21:27:06 67° ENE 21:32:35 10° N visible
31 Jul 7.5 23:04:47 10° SW 23:08:11 16° W 23:11:36 10° NW visible
01 Aug 5.5 21:09:41 11° SE 21:14:47 52° ENE 21:20:08 10° N visible
01 Aug 7.2 22:51:39 10° SW 22:55:41 21° W 22:59:50 10° NW visible
02 Aug 5.8 20:57:22 10° SE 21:02:30 41° ENE 21:07:37 10° N visible
02 Aug 6.9 22:39:13 13° SSW 22:43:13 27° W 22:47:52 10° NW visible
